Weather Roundup
Issued by NWS

Home | Current Version | Previous Version | Text Only | Print | Product List | Glossary On
Versions: 1 2 3 4 5 6 7 8 9 10 11 12 13 14 15 16 17 18 19 20 21 22 23 24 25 26 27 28 29 30 31 32 33 34 35 36 37 38 39 40 41 42 43 44 45 46 47 48 49 50
000
NZUS93 KARX 280059
HRRWXR

CURRENT HOURLY OBSERVATIONS ACROSS
MUCH OF THE UPPER MISSISSIPPI VALLEY
NATIONAL WEATHER SERVICE LA CROSSE WI
700 PM CST SAT DEC 27 2014


...SOUTHEAST MINNESOTA...


CITY           SKY/WX    TMP DP  RH WIND       PRES   REMARKS
ROCHESTER      CLEAR      8   4  83 W13       30.12R WCI  -8
ROCHESTER/MAYO FAIR      15   9  78 W9        30.12S WCI   3
WINONA         CLEAR     21  16  79 CALM      30.15R
AUSTIN         CLEAR     10   7  85 CALM      30.13F
ALBERT LEA     CLEAR     12   9  85 SW6       30.13F WCI   3
DODGE CENTER   CLEAR      9   5  85 W10       30.11S WCI  -6
PRESTON        CLEAR     11   8  87 W8        30.13R WCI  -1
OWATONNA       CLEAR      9   3  78 SW6       30.12F WCI  -1
FARIBAULT      CLEAR     10   5  79 SW6       30.12F WCI   1
$$

...ELSEWHERE IN MINNESOTA...


CITY           SKY/WX    TMP DP  RH WIND       PRES   REMARKS
MINNEAPOLIS    CLEAR     13   6  74 W7        30.13R WCI   3
INTNL FALLS    CLOUDY    11   6  81 W7        29.96S WCI   0
DULUTH         MOCLDY    19   7  59 W8        29.96S WCI   9
RED WING       CLEAR     16   9  73 W9        30.12S WCI   4
REDWOOD FALLS  CLEAR     14   8  77 SW13      30.12S WCI   0
MANKATO        CLEAR     12   5  73 S8        30.13S WCI   1
WORTHINGTON    CLEAR     10 -33  12 SW9       30.13F WCI  -2
FAIRMONT       CLEAR     16   7  67 SW9       30.13F WCI   4
$$

...SOUTHWEST WISCONSIN...


CITY           SKY/WX    TMP DP  RH WIND       PRES   REMARKS
LA CROSSE      CLEAR     23  16  74 W6        30.14R WCI  16
PRAIRIE DU CHI CLOUDY    25  17  74 NW13      30.16R WCI  13
BOSCOBEL       CLOUDY    27  19  72 W9        30.15R WCI  18
LONE ROCK      NOT AVBL
PLATTEVILLE    CLOUDY    27  24  87 W13       30.13S WCI  17
FORT MC COY    CLOUDY    25  18  77 W6        30.12R WCI  18
CAMP DOUGLAS   CLOUDY    27  27 100 W14       30.08S WCI  15
VIROQUA        CLOUDY    23  22  94 W10       30.09S WCI  13
WIS DELLS      NOT AVBL
$$

...ELSEWHERE IN WISCONSIN...


CITY           SKY/WX    TMP DP  RH WIND       PRES   REMARKS
MILWAUKEE      CLOUDY    35  25  66 NW15      30.07R WCI  25
MADISON        CLOUDY    31  24  75 W13G18    30.08R WCI  21
GREEN BAY      PTCLDY    33  28  81 W12       30.00R WCI  24
EAU CLAIRE     NOT AVBL
BLACK RVR FLS  MOCLDY    20  17  88 W5        30.10R WCI  14
MEDFORD        MOCLDY    20  16  86 W14       30.01S WCI   6
WAUSAU         MOCLDY    24  18  77 NW10      30.00S WCI  14
WIS RAPIDS     CLOUDY    25  18  74 W9        30.08R WCI  15
MARSHFIELD     CLOUDY    22  17  81 W13       30.05R WCI  10
RICE LAKE      CLEAR     13  12  95 SW3       30.06S
$$

...NORTHEAST IOWA...


CITY           SKY/WX    TMP DP  RH WIND       PRES   REMARKS
DECORAH        PTCLDY    19  16  86 VRB6      30.14R WCI  11
MASON CITY     CLEAR     16  10  77 W12       30.17S WCI   3
CHARLES CITY   CLEAR     16  10  79 SW7       30.17S WCI   6
OELWEIN        PTCLDY    21  18  86 W15       30.16S WCI   8
$$

...ELSEWHERE IN IOWA...


CITY           SKY/WX    TMP DP  RH WIND       PRES   REMARKS
DES MOINES     PTCLDY    24  18  77 NW7       30.22S WCI  16
IOWA CITY      PTCLDY    27  21  78 W9        30.20F WCI  18
FORT DODGE     CLEAR     16   9  73 W7        30.21S WCI   6
$$

...NORTHERN ILLINOIS...


CITY           SKY/WX    TMP DP  RH WIND       PRES   REMARKS
CHICAGO-OHARE  CLOUDY    34  26  72 NW17G23   30.08R WCI  23
CHICAGO-MIDWAY CLOUDY    36  26  67 W15       30.09R WCI  27
MOLINE         CLOUDY    30  22  72 NW15      30.16S WCI  19
ROCKFORD       MOCLDY    32  25  75 NW13      30.12S WCI  22
PEORIA         CLOUDY    34  25  69 NW12      30.16S WCI  25
$$

NOTE: "FAIR" INDICATES FEW OR NO CLOUDS BELOW 12,000 FEET WITH NO
SIGNIFICANT WEATHER AND/OR OBSTRUCTIONS TO VISIBILITY. WIND
SPEEDS ARE IN MILES-PER-HOUR.



USA.gov is the U.S. government's official web portal to all federal, state and local government web resources and services.